Theta_e
287 287 288 288 287 287 287 288 288 287 287 288 288 289 289 289 289 290 290 290 290 289 289 289 289 290 290 291 292 292 293 293 293 293 293 293 293 293 293 293 293 293 293 293 293 293 293 293 293 294 294 294 294 294 294 294 294 294 294 294 295 295 295 295 295 296 296 296 296 297 297 297 297 297 297 298 298 298 298 298 298 298 299 299 299 299
286 287 287 287 287 286 286 287 288 287 287 287 288 288 288 288 288 289 289 289 289 289 289 289 289 289 290 291 291 292 292 293 293 293 292 292 292 292 292 292 293 293 293 293 293 293 293 293 293 293 293 293 293 293 293 293 293 293 293 293 294 294 294 295 295 295 295 296 296 296 296 296 296 296 297 297 297 297 297 298 298 298 298 298 298 299
285 285 286 287 286 286 286 287 287 288 288 288 288 288 288 288 288 288 288 288 289 289 289 289 289 289 289 290 291 292 292 292 292 292 292 292 292 292 292 292 292 292 292 292 292 292 292 292 293 293 293 293 293 293 293 293 293 293 293 293 293 294 294 294 294 295 295 295 295 295 296 296 296 296 296 297 297 297 297 297 298 298 298 298 298 298
284 284 285 286 286 286 286 286 287 288 288 288 288 288 288 287 287 287 288 288 289 289 289 290 289 289 289 289 290 291 291 291 292 292 292 291 292 292 292 292 292 292 292 292 292 292 292 292 292 292 292 292 293 293 293 293 293 293 293 293 293 294 294 294 294 294 295 295 295 295 295 296 296 296 296 297 297 297 297 298 298 298 298 298 298 298
284 284 285 285 285 285 286 287 287 287 288 288 288 288 288 287 287 288 288 289 289 289 289 289 289 288 288 288 289 290 291 291 291 291 291 291 291 291 291 291 291 292 292 292 292 292 292 292 292 292 292 292 293 293 293 293 293 293 293 293 293 294 294 294 294 294 294 295 295 295 295 295 296 296 296 296 296 297 297 297 297 297 297 298 298 298
284 284 285 285 285 285 286 287 287 287 287 287 287 287 288 288 288 288 288 288 288 288 288 288 288 288 288 288 289 289 290 290 291 291 291 291 291 291 291 291 291 291 291 292 292 292 292 292 292 292 292 292 293 293 293 293 293 293 293 293 293 293 294 294 294 294 294 294 294 294 294 294 295 295 295 295 295 296 296 296 296 297 297 297 297 298
283 284 285 285 285 285 286 286 287 287 286 286 286 287 287 288 288 288 288 287 287 287 287 287 287 288 288 288 288 289 289 289 290 290 290 290 291 291 291 291 291 291 291 292 292 292 292 292 292 292 292 292 292 293 293 293 293 293 293 293 293 293 293 293 293 293 293 293 293 293 293 293 293 293 294 294 294 295 295 295 295 295 296 296 297 297
283 284 285 284 285 285 285 286 286 287 287 286 286 286 286 286 287 287 287 287 287 287 286 286 286 287 287 287 288 288 288 288 288 288 289 289 290 290 290 291 291 291 291 291 292 292 292 292 292 292 292 292 292 292 292 292 292 292 292 292 292 292 292 292 292 292 292 292 292 292 292 292 292 292 293 293 293 293 294 294 294 295 295 296 296 297
283 283 284 284 284 284 284 285 286 287 287 287 286 285 285 285 285 285 286 286 286 286 286 285 285 285 286 286 287 287 287 287 287 287 288 288 288 289 290 290 291 291 291 291 291 291 292 292 292 292 292 292 292 292 292 292 291 291 291 291 291 291 291 291 291 291 291 291 291 291 291 292 292 292 292 292 292 293 293 293 294 294 295 295 296 296
283 283 283 284 284 284 284 284 285 287 287 287 287 286 285 284 284 283 284 284 285 285 285 285 284 284 285 286 286 287 287 287 288 289 289 289 289 289 290 290 290 290 291 291 291 291 291 291 291 291 291 291 291 291 291 291 290 290 290 290 290 290 290 291 291 291 291 291 291 291 291 291 291 291 292 292 292 292 292 292 293 293 294 295 295 296
283 283 283 284 284 285 285 285 286 287 287 287 286 286 285 284 283 283 282 282 283 284 284 284 284 284 284 284 285 286 286 286 287 288 289 289 290 290 290 289 289 290 290 290 290 290 290 290 290 290 290 290 290 290 290 290 290 290 290 290 290 290 290 290 290 290 291 291 291 291 291 291 291 291 291 291 291 291 292 292 292 293 293 294 295 295
283 283 283 284 284 285 285 286 286 287 286 285 284 283 283 284 284 283 282 281 282 282 283 283 284 284 284 284 285 285 286 286 286 286 287 287 288 288 288 288 288 289 289 289 289 289 289 290 290 290 290 289 289 290 289 289 289 289 289 289 289 289 289 290 290 290 290 290 290 291 291 291 291 291 291 291 292 292 292 292 292 292 293 294 294 294
284 284 284 284 284 284 284 284 284 284 283 282 282 281 282 283 283 283 282 282 282 282 282 282 283 284 285 285 285 285 285 285 285 286 286 286 286 286 286 286 286 287 287 287 287 287 288 289 289 289 289 289 289 289 289 289 289 289 289 289 289 289 289 289 289 290 290 290 290 291 291 291 291 291 291 292 292 292 292 292 292 293 293 294 294 294
284 284 284 284 283 283 283 283 282 282 281 282 282 282 283 283 283 283 282 281 282 282 282 282 282 283 284 285 285 286 285 285 285 285 285 285 286 286 286 285 285 285 285 285 285 286 287 287 287 287 288 288 288 288 288 288 288 289 289 289 289 289 289 289 290 290 290 290 291 291 291 291 291 291 292 292 292 292 292 292 292 293 293 293 293 294
283 283 282 282 282 282 282 282 281 281 281 282 283 283 283 283 283 282 281 281 281 282 282 282 282 282 284 285 285 286 285 285 284 284 284 285 285 286 286 285 285 285 285 285 285 285 287 286 286 286 286 287 287 287 287 288 288 288 288 289 289 289 289 289 290 290 290 290 290 290 291 291 291 291 291 291 292 292 292 292 292 292 292 293 293 293
283 282 281 281 281 281 282 282 282 281 282 283 283 283 282 282 281 281 280 280 281 281 281 281 281 281 282 284 285 286 285 284 284 283 283 283 285 286 286 284 284 284 284 284 284 285 286 286 285 285 285 286 287 287 288 288 288 288 289 289 289 289 289 289 289 289 290 290 290 290 290 290 291 291 291 291 291 291 291 291 292 292 292 292 292 292
282 281 281 280 280 281 281 282 282 282 282 283 283 283 282 282 281 281 281 281 281 281 281 280 280 279 280 282 284 285 285 284 283 283 282 282 284 285 285 284 283 283 283 284 284 284 285 285 285 285 285 286 287 288 288 288 288 288 288 289 289 289 289 289 289 289 290 290 290 290 290 290 290 290 291 291 291 291 291 291 291 292 292 292 292 292
281 281 281 280 280 281 281 282 282 282 282 282 282 282 282 282 282 282 281 281 281 281 281 280 280 279 278 279 282 284 286 284 283 282 281 281 283 284 285 284 284 283 283 283 284 284 284 285 285 285 285 287 288 288 288 288 288 288 288 288 289 289 289 289 289 289 290 290 290 290 290 290 290 290 290 290 291 291 291 291 291 291 292 292 292 292
281 281 281 280 281 281 281 282 282 282 282 282 281 281 282 282 282 282 282 282 281 281 281 280 280 279 279 279 281 284 286 284 283 281 281 281 282 283 285 284 283 283 283 283 284 284 284 285 285 286 287 287 288 288 288 288 288 288 288 288 288 288 289 289 289 289 289 290 290 290 290 290 290 290 290 290 291 291 291 291 291 291 292 292 292 292
281 281 281 281 281 281 281 282 282 282 282 282 282 282 282 282 282 282 282 282 282 281 281 280 279 279 280 280 282 284 285 284 282 281 280 280 281 283 284 283 283 282 282 282 283 284 284 285 285 286 286 287 287 288 288 288 288 288 288 288 288 288 288 289 289 289 289 289 289 290 290 290 290 290 290 290 290 290 291 291 291 291 291 292 292 292
281 281 282 282 282 281 281 281 282 283 284 284 283 282 282 282 282 282 282 282 281 281 280 280 280 280 281 281 282 283 285 283 282 280 280 280 280 282 283 283 282 282 281 282 283 284 284 284 284 285 286 287 287 287 288 288 288 288 288 288 288 288 288 288 289 289 289 289 289 289 290 290 290 290 290 290 290 290 290 290 291 291 291 291 291 291
281 281 282 283 282 282 282 282 284 285 285 284 283 282 282 282 281 281 281 281 280 280 280 280 280 281 282 282 282 283 284 284 282 281 280 279 279 281 283 283 282 281 281 282 283 284 284 284 284 285 286 287 287 287 287 287 288 288 288 288 288 288 288 289 289 289 289 289 289 289 289 289 290 290 290 290 290 290 290 290 290 290 291 291 291 291
282 282 283 283 283 283 284 284 285 285 286 285 284 284 284 283 282 281 281 281 281 281 281 281 282 282 283 283 283 284 284 284 283 281 280 278 278 280 282 282 282 281 281 282 283 283 284 284 284 284 285 287 287 287 287 287 288 288 288 288 288 288 288 288 288 289 289 289 289 289 289 289 289 290 290 290 290 290 290 290 290 291 291 291 291 291
284 284 284 284 284 285 285 285 285 285 286 286 285 285 285 284 283 283 283 282 282 282 282 282 282 282 282 282 283 283 284 284 283 282 280 278 279 280 281 282 281 280 281 282 282 283 283 283 283 284 284 286 287 287 287 287 288 288 288 288 288 288 288 288 288 289 289 289 289 289 289 290 290 290 290 290 290 290 290 290 291 291 291 291 291 291
285 285 285 285 286 286 286 286 287 287 287 286 285 285 284 284 284 284 284 283 283 282 281 281 280 280 280 281 281 281 283 284 283 282 280 279 279 280 281 281 281 280 280 282 282 282 282 282 283 283 284 285 286 287 287 287 287 288 288 288 288 288 288 288 288 289 289 289 289 289 289 290 290 290 290 290 290 290 290 290 290 290 291 291 291 291
286 286 286 287 288 288 289 289 289 288 288 286 285 284 284 284 283 283 282 282 282 281 280 279 278 278 279 279 279 280 282 283 283 282 280 279 279 279 281 281 281 280 280 281 282 282 281 282 282 283 283 284 285 286 287 287 287 287 287 288 288 288 288 288 289 289 289 289 289 289 289 289 290 290 290 290 290 290 290 290 290 290 290 290 290 290
288 288 288 289 289 289 288 288 288 287 287 287 286 285 284 283 282 281 280 280 280 280 279 278 277 277 278 278 278 279 281 282 282 282 281 280 279 279 280 281 281 280 280 280 281 281 282 281 282 282 283 283 284 285 286 287 287 287 287 288 288 288 288 288 288 289 289 289 289 289 289 289 289 290 290 290 290 290 290 290 290 290 290 290 290 290
288 288 288 288 287 287 287 286 286 286 286 286 286 286 285 283 281 279 279 280 280 279 278 277 277 277 277 277 278 279 280 281 282 282 282 281 279 278 279 280 281 280 279 280 280 281 282 282 282 282 283 283 284 285 286 286 287 287 287 287 287 288 288 288 288 288 288 288 289 289 289 289 290 290 290 290 290 290 290 290 290 290 290 289 289 289
287 287 287 286 286 286 285 285 285 285 286 286 286 285 285 282 281 280 280 280 280 279 278 277 277 277 277 277 278 279 279 280 282 283 282 280 279 279 280 280 280 280 279 279 279 280 280 281 282 282 283 283 284 284 284 285 286 286 286 287 287 287 287 287 288 288 288 288 288 289 289 289 289 290 290 290 290 290 290 290 290 290 290 289 288 288
285 285 284 284 284 284 284 284 284 284 285 285 285 285 284 283 281 281 280 280 280 278 278 277 277 277 277 277 277 277 278 280 282 283 282 280 279 278 280 279 280 280 279 278 277 277 278 280 281 282 283 283 283 283 283 284 284 284 285 285 286 286 287 287 287 288 288 288 288 289 289 289 289 289 289 290 290 290 290 290 290 290 289 288 288 287
283 283 282 283 283 283 283 283 283 283 284 284 284 284 283 283 282 281 281 281 280 279 278 278 277 277 277 276 275 275 276 279 282 283 282 280 279 279 279 279 279 279 280 278 276 275 276 278 280 282 283 283 282 282 283 283 283 284 284 284 285 286 287 287 287 288 288 288 289 289 289 289 289 289 289 289 290 290 290 290 290 289 288 287 287 287
282 281 281 281 282 282 282 282 282 282 282 282 283 283 283 282 282 282 281 281 280 280 279 278 278 278 278 277 276 275 276 279 281 283 282 280 279 279 280 279 279 279 280 279 278 276 275 276 278 280 281 281 282 282 283 283 284 284 284 284 284 285 286 287 287 287 288 288 288 288 289 289 289 289 289 289 289 290 290 290 290 289 288 287 286 286
281 281 281 281 281 281 281 281 281 281 281 281 282 282 282 282 282 282 282 281 281 280 279 279 278 278 277 277 277 277 278 279 281 283 283 281 279 279 280 279 279 279 280 279 279 278 277 277 277 279 280 281 281 282 283 283 284 284 284 284 284 285 286 287 287 287 287 287 288 288 288 288 288 289 289 289 289 289 289 290 289 289 288 287 286 286
281 281 281 281 281 281 281 281 281 281 281 281 281 281 281 282 282 282 282 282 281 281 280 279 278 278 277 277 277 277 278 280 282 283 283 281 280 279 279 279 279 278 278 279 278 278 278 278 278 278 279 280 281 282 282 283 284 284 285 285 284 284 285 285 286 286 286 286 286 286 287 287 288 288 288 288 289 289 289 289 289 290 289 288 287 286
280 280 280 280 280 280 280 280 280 280 280 281 281 281 281 281 281 281 282 282 282 281 281 281 280 279 278 277 277 277 278 280 282 283 283 281 280 279 279 279 278 278 278 278 278 278 277 278 278 278 278 279 280 281 282 283 284 285 285 285 285 284 285 285 285 285 285 286 286 286 286 286 287 287 287 288 288 289 289 289 290 290 290 289 289 287
279 279 279 279 279 279 280 280 280 280 280 280 280 281 281 281 281 281 281 281 282 282 282 281 281 281 280 279 278 278 278 280 282 283 283 282 281 280 278 279 279 279 278 278 278 277 277 277 278 278 278 278 278 279 281 283 284 284 284 284 284 285 285 285 285 285 285 285 285 285 285 286 286 286 287 288 288 289 289 289 290 290 290 290 290 289
278 278 279 279 279 279 279 279 280 280 280 280 280 281 281 281 281 281 281 281 282 282 282 282 282 282 282 281 281 280 280 281 282 283 283 282 281 280 279 279 279 279 278 278 278 278 277 277 277 278 278 277 278 278 280 282 282 283 283 284 284 284 285 285 285 285 285 285 285 285 285 286 286 286 287 288 288 288 289 289 289 290 290 290 290 290
278 278 278 279 279 279 279 279 279 279 279 280 280 280 281 281 281 281 281 281 282 282 281 282 282 282 283 283 283 282 282 282 282 282 283 282 282 281 280 279 280 280 280 279 278 278 277 277 277 276 277 277 278 279 280 281 281 281 282 283 284 284 284 285 285 285 285 285 285 285 286 286 286 286 286 287 287 287 287 287 288 289 289 289 290 290
278 278 278 278 278 278 278 279 279 279 280 280 280 281 281 281 281 282 282 282 282 282 282 282 282 282 283 283 283 283 283 283 283 283 283 283 282 281 280 280 280 280 280 280 280 279 278 277 277 276 277 277 278 279 280 280 280 280 281 282 283 283 284 285 285 285 285 285 285 285 285 285 286 286 286 286 286 286 286 286 287 287 288 287 288 289
277 278 278 278 279 279 278 279 279 279 280 280 281 281 281 281 281 282 282 282 282 282 282 283 282 282 283 283 283 283 283 283 283 283 283 283 282 282 281 280 280 280 281 281 280 280 279 278 278 278 278 277 278 278 279 280 280 281 281 280 280 281 283 284 285 285 285 285 285 285 285 285 285 286 286 286 286 286 286 286 286 287 287 287 286 286
278 278 278 278 279 279 279 279 280 280 280 280 281 281 281 281 281 281 281 282 282 282 282 282 282 282 282 283 283 283 283 283 283 283 283 283 283 283 282 281 281 281 280 280 280 280 279 279 278 278 278 278 278 279 279 280 281 281 281 280 280 281 283 284 284 285 285 285 285 285 285 285 285 286 286 286 286 286 287 286 286 287 287 287 287 286
278 278 278 278 279 279 279 280 280 281 280 280 280 280 280 280 280 280 280 280 281 281 281 281 281 281 281 281 282 282 283 283 284 284 284 284 283 283 283 282 282 281 281 280 280 280 280 280 279 279 279 279 279 278 278 280 281 281 281 280 281 281 282 284 284 285 285 285 285 285 285 285 285 285 285 286 286 286 287 287 287 288 288 287 287 287
278 278 278 278 279 279 280 280 280 280 280 280 279 279 280 280 280 280 280 280 280 280 281 281 280 280 279 280 280 281 283 283 284 284 284 284 284 284 283 283 283 282 282 281 280 280 281 281 280 280 280 280 279 279 278 279 280 280 281 281 281 281 280 282 283 285 285 285 285 285 285 285 285 285 286 286 286 287 287 288 288 289 289 288 288 288
278 278 279 279 279 279 279 279 279 279 279 279 279 279 280 280 280 280 280 280 280 280 280 280 280 280 279 279 279 280 281 283 283 284 284 284 284 284 284 284 283 283 283 281 281 280 280 280 281 281 281 281 280 279 279 279 279 280 281 282 281 281 280 281 283 284 284 284 285 285 285 285 286 286 286 286 286 287 287 287 288 288 289 289 289 289
278 278 278 279 279 279 278 278 279 279 279 279 279 279 280 280 281 280 280 280 280 280 280 280 280 279 278 278 279 279 280 281 282 283 283 284 285 285 285 285 284 284 284 283 282 281 280 280 280 281 281 281 280 279 279 279 279 280 281 282 282 282 282 283 284 284 283 284 284 285 285 286 286 285 285 285 285 286 287 287 288 288 289 289 289 289
278 278 278 278 278 278 278 278 279 279 279 279 279 279 280 280 280 280 280 280 280 280 280 280 279 278 277 278 278 279 279 280 281 282 282 283 284 285 285 285 285 285 284 284 283 283 282 281 280 280 280 280 280 280 280 280 280 280 281 282 282 282 283 283 284 284 284 284 284 285 286 286 285 285 284 284 285 286 287 288 288 288 288 289 289 289
277 277 277 277 277 277 278 278 278 278 278 278 279 279 280 280 280 280 280 280 280 279 279 279 279 278 277 278 278 278 278 279 280 280 281 282 283 284 284 285 285 285 284 284 284 283 283 283 282 281 280 279 279 279 280 280 281 281 281 282 282 282 282 282 283 284 284 284 284 285 285 285 285 284 284 284 284 285 286 287 288 288 288 288 288 288
277 277 277 277 277 277 277 277 277 277 277 278 278 279 279 280 280 279 279 279 279 279 279 279 278 278 278 278 278 279 279 279 279 280 281 281 282 283 283 284 284 285 285 284 284 284 284 284 284 283 282 280 279 279 280 280 281 281 282 282 282 282 282 282 283 284 285 284 285 285 285 285 284 283 283 284 284 284 285 286 287 288 288 288 289 289
277 277 277 277 277 277 277 277 277 277 277 277 278 278 279 280 280 280 279 279 279 279 278 278 278 278 278 278 279 279 279 279 280 280 280 281 282 282 283 283 283 283 283 284 284 284 284 284 284 284 284 283 281 280 280 281 281 282 282 282 282 282 282 282 283 284 284 284 285 285 285 285 285 284 284 283 283 284 284 285 286 287 288 289 289 289
277 277 277 277 277 277 277 277 277 277 277 277 277 278 279 279 279 279 279 279 279 279 278 278 278 278 278 278 279 279 279 279 279 280 280 281 281 282 282 282 282 282 282 282 282 282 282 282 283 284 285 285 284 283 281 281 282 282 282 283 282 282 282 282 283 284 284 284 284 285 285 285 285 285 284 284 283 283 284 285 285 287 287 288 289 289
277 276 277 277 277 277 277 277 277 277 277 277 277 278 278 278 278 279 279 279 279 279 278 278 278 278 278 278 279 279 279 279 279 280 280 281 281 282 281 281 281 281 280 280 279 279 279 279 280 281 283 285 286 285 284 283 282 282 282 282 282 283 282 282 283 284 284 284 284 284 284 285 285 285 285 284 283 283 283 284 285 286 287 288 288 289
Wind_Speed
8 8 9 11 12 12 11 13 14 14 12 11 10 11 11 12 12 12 15 15 15 14 14 14 14 15 17 20 22 24 25 26 26 27 27 27 28 28 28 28 28 29 29 29 30 30 30 30 30 31 31 31 31 31 31 31 31 32 32 32 32 32 32 32 32 32 32 32 32 32 32 32 32 32 32 32 32 32 33 33 33 32 32 32 32 33
9 9 9 12 13 13 11 12 13 13 13 13 12 11 12 13 12 11 11 13 14 13 13 13 14 15 17 19 21 23 25 26 26 26 27 27 27 27 28 28 28 29 29 29 30 30 30 30 31 31 31 31 31 31 31 32 32 32 32 32 32 32 32 32 32 32 32 32 32 32 32 32 32 32 32 32 33 33 32 32 32 32 32 32 32 33
9 9 8 10 11 12 11 12 13 13 14 14 13 13 14 15 13 11 10 11 11 12 12 13 14 15 17 18 20 22 24 25 25 26 26 26 27 27 28 28 28 29 29 29 30 30 30 30 31 31 31 31 31 31 31 31 32 32 32 32 32 32 32 32 32 32 31 31 31 31 31 31 31 31 32 32 32 32 32 32 32 32 32 32 32 33
9 9 9 9 9 11 11 12 12 12 12 13 14 15 16 14 12 10 10 11 11 12 13 14 15 15 15 15 17 20 22 24 25 25 26 26 27 27 28 28 29 29 29 30 30 30 30 30 31 31 31 31 31 31 31 31 32 32 32 32 32 32 32 32 32 31 31 31 31 31 31 31 31 31 31 31 31 31 31 31 31 31 31 31 32 32
9 9 9 9 9 10 11 12 12 12 11 12 13 13 13 11 10 10 10 11 12 13 13 13 14 14 13 12 14 18 22 24 25 26 26 27 27 27 28 28 29 29 29 29 30 30 30 30 30 30 31 31 31 31 31 31 32 32 32 32 32 32 32 31 31 31 31 31 31 31 31 30 31 31 31 30 30 30 29 30 30 30 30 30 30 31
9 9 9 9 9 9 9 10 10 10 11 10 10 11 11 10 10 10 10 11 12 12 11 11 12 13 13 13 15 18 21 23 24 25 26 26 27 27 28 28 28 29 29 29 29 29 30 30 30 30 30 31 31 31 31 31 32 32 32 32 32 32 31 31 31 31 31 31 31 31 30 30 30 31 31 30 30 30 29 30 29 29 29 29 29 30
9 9 9 9 9 8 8 9 9 10 10 9 9 9 9 9 10 11 12 11 11 11 10 10 11 11 12 13 15 18 19 21 23 24 24 25 26 26 27 27 28 28 29 29 29 29 29 30 30 30 30 30 31 31 31 31 31 32 32 32 32 32 31 31 31 31 31 31 31 31 31 30 30 30 30 30 30 30 30 30 30 30 30 30 30 30
10 9 9 9 9 9 8 8 9 9 9 9 8 8 8 9 9 11 12 12 11 10 10 10 10 10 11 12 14 15 16 17 17 18 20 21 22 23 25 26 27 28 28 28 29 29 29 29 30 30 30 30 30 31 31 31 31 31 31 31 31 32 31 32 32 32 32 32 31 31 31 31 30 30 30 30 30 30 31 31 31 31 31 31 31 31
11 11 10 10 10 10 9 8 8 8 8 8 8 9 9 10 10 10 10 10 10 10 10 10 10 10 11 11 12 13 14 15 15 15 16 16 17 19 21 23 25 26 27 27 28 28 29 29 29 29 30 30 30 30 30 30 31 31 31 31 31 31 31 31 31 31 31 31 31 31 31 30 30 30 30 30 30 30 30 30 30 31 31 31 32 32
11 11 11 10 9 9 9 9 8 8 8 8 9 9 10 11 11 10 10 10 9 9 9 10 10 11 11 11 11 12 13 15 17 18 19 18 19 21 21 21 22 23 25 26 27 28 28 28 28 29 29 29 29 29 30 30 30 30 30 30 30 30 30 31 31 31 31 31 30 30 30 30 30 30 29 29 29 30 30 30 30 30 30 30 31 31
10 10 10 10 8 7 7 7 7 8 9 9 9 9 9 10 11 11 12 11 10 9 9 9 10 10 11 10 11 11 12 13 14 16 18 19 20 22 22 21 21 22 24 25 25 26 26 27 27 28 28 28 28 29 29 29 29 29 29 29 29 29 30 30 30 30 30 30 30 30 30 29 29 29 29 29 29 29 29 29 29 30 30 30 30 31
9 9 8 8 7 6 6 6 7 8 9 9 9 9 9 9 9 10 11 11 11 10 10 10 9 10 10 10 11 11 11 11 12 12 12 13 14 15 16 16 17 18 20 20 21 23 24 25 26 26 26 27 27 27 27 27 27 28 28 28 28 29 29 29 29 29 29 29 29 29 29 29 29 29 29 30 30 30 30 30 30 30 30 30 30 31
8 7 6 6 6 6 6 7 8 8 8 9 10 10 10 9 9 9 10 11 11 11 10 10 10 10 10 10 10 10 10 11 11 11 10 10 10 10 11 11 12 12 13 14 15 16 19 22 23 24 24 25 25 26 26 26 26 27 27 28 28 28 28 29 29 29 29 29 29 30 30 30 30 30 30 30 30 30 30 30 30 30 30 30 30 30
7 6 6 6 7 7 8 9 10 10 9 9 9 10 10 9 9 9 10 10 10 10 10 11 11 10 9 9 9 9 10 10 11 10 10 10 9 9 10 10 11 11 11 12 12 13 16 17 18 18 21 22 23 24 24 24 25 26 27 27 27 28 28 29 29 29 29 30 30 30 30 30 30 30 30 30 30 30 30 30 30 30 30 30 30 30
7 7 7 8 9 9 9 10 10 10 10 9 9 9 9 9 9 9 9 10 10 10 10 11 11 10 8 7 8 9 9 10 10 10 11 10 9 9 10 11 11 12 11 12 12 13 15 14 14 14 16 19 20 21 22 23 25 26 27 27 28 28 29 29 30 30 30 30 30 31 31 31 31 31 31 31 31 31 31 30 30 30 30 30 30 30
7 8 9 10 10 10 9 10 10 10 10 10 9 9 9 9 9 9 9 10 10 10 9 10 10 10 8 7 7 8 9 10 10 10 11 10 10 10 10 11 12 12 11 11 12 12 12 12 13 13 14 18 21 23 25 25 26 27 28 28 29 29 30 30 30 30 31 31 31 31 31 31 31 31 31 31 31 31 31 31 30 30 30 30 30 30
8 9 9 10 10 10 10 10 10 10 10 9 9 9 9 9 9 9 9 9 9 8 8 9 9 9 7 7 7 8 9 9 10 10 11 11 10 10 10 11 12 12 12 12 11 11 11 12 12 12 13 17 21 24 26 26 27 28 29 29 29 30 30 30 30 30 31 31 31 31 31 31 31 31 31 31 31 31 31 30 30 30 30 31 31 31
9 9 10 10 10 10 10 10 9 9 9 9 9 9 8 9 9 9 9 8 8 8 8 8 8 7 8 8 7 7 9 9 10 10 11 11 11 10 10 11 12 12 12 12 11 11 11 12 12 13 14 20 23 25 27 28 28 28 29 29 30 30 30 30 30 30 31 31 31 31 31 31 31 31 31 31 31 31 31 31 31 31 31 31 31 31
9 9 10 10 10 10 9 9 9 9 9 8 8 9 9 10 9 9 9 8 8 8 8 8 8 8 9 9 9 9 10 10 10 10 11 11 11 10 10 10 11 12 12 12 11 11 11 12 13 16 20 23 25 26 27 28 28 28 29 29 30 30 30 30 30 31 31 31 31 31 31 31 31 31 31 31 31 31 31 31 31 31 31 31 31 31
10 10 10 10 10 10 9 9 9 9 9 9 9 10 10 10 9 9 8 8 8 8 8 9 10 10 9 10 11 11 10 10 10 10 11 11 11 11 10 10 11 12 12 11 11 11 11 11 13 16 20 22 24 26 27 27 28 29 29 30 30 30 30 31 31 31 31 31 31 31 31 31 31 31 31 31 31 31 31 31 31 31 31 31 31 31
10 10 10 9 9 9 8 8 9 10 11 11 11 11 11 9 9 8 8 8 8 9 9 9 10 10 9 10 11 11 11 10 10 10 9 9 10 9 9 9 11 11 12 11 11 10 11 11 11 12 16 20 24 26 27 28 29 29 30 30 30 30 30 30 30 31 31 31 31 31 31 31 31 31 31 31 31 31 31 31 31 31 31 32 32 32
10 10 11 11 11 10 9 10 11 12 13 13 12 10 9 8 8 8 9 9 10 10 10 10 10 10 10 11 12 12 11 10 10 9 8 9 10 10 8 9 10 11 12 11 11 11 11 11 11 13 16 21 25 27 28 28 29 29 29 30 30 30 30 30 30 30 30 30 30 30 30 30 30 30 31 31 31 31 31 31 31 31 32 32 32 32
10 11 11 11 11 10 10 11 11 12 12 11 10 9 7 8 8 9 10 10 10 10 10 10 10 10 11 11 11 11 10 10 9 8 7 9 10 10 8 8 9 10 11 10 10 11 11 11 12 13 17 22 25 27 28 28 28 29 29 29 29 29 29 29 29 29 29 29 30 30 30 30 30 30 31 31 31 31 31 31 31 32 32 32 32 33
11 12 11 11 10 10 10 10 10 10 9 8 8 9 9 9 10 10 10 10 10 10 10 10 10 11 11 11 11 10 9 9 8 8 7 8 9 10 8 9 10 11 11 10 10 11 12 12 12 13 14 20 23 26 27 27 28 28 28 28 28 28 28 28 28 29 29 29 30 30 30 30 30 31 31 31 31 31 31 31 32 32 32 32 32 33
11 11 11 11 12 13 13 12 12 11 11 10 10 10 10 11 12 12 11 11 10 10 9 10 10 10 9 10 10 9 8 8 8 7 6 7 9 10 9 9 9 11 11 10 10 11 12 12 13 13 13 16 20 24 25 26 26 26 26 26 26 27 27 27 28 28 29 29 30 30 30 30 30 31 31 31 31 31 31 31 31 32 32 32 32 33
15 16 16 18 20 22 23 22 21 20 20 17 13 11 11 11 11 11 10 10 9 9 9 10 10 10 9 8 8 8 8 8 7 7 7 7 8 9 9 8 9 10 11 11 10 11 12 13 13 13 13 14 17 20 23 24 24 25 25 25 26 26 27 27 28 29 29 29 30 30 30 30 30 30 31 31 31 31 31 31 31 32 32 32 32 32
22 23 24 25 24 24 24 24 24 25 25 22 19 16 13 11 10 10 10 9 8 8 9 9 10 10 9 9 8 8 8 7 7 7 7 8 8 9 8 8 9 10 11 11 10 11 12 13 13 13 13 12 13 16 19 21 23 24 24 25 26 26 27 27 28 28 29 29 29 29 29 30 30 30 30 30 30 31 31 31 31 31 31 30 28 27
22 22 21 21 21 21 22 22 22 23 23 22 22 20 15 11 10 10 9 8 8 8 9 9 9 9 9 9 9 9 9 8 7 7 7 7 7 7 8 8 9 10 11 10 10 11 12 12 12 12 12 11 11 13 16 19 21 23 24 24 25 26 26 27 27 28 28 28 28 28 29 29 29 29 30 30 30 30 31 31 31 31 29 26 21 18
18 18 18 18 19 19 20 20 20 20 20 20 20 18 14 10 9 9 9 8 8 9 9 9 9 9 9 9 9 9 9 8 8 7 7 6 6 7 8 8 8 9 9 10 10 10 10 10 10 10 11 12 11 11 13 16 17 19 20 22 23 24 25 25 26 26 27 27 27 27 28 28 28 29 29 29 30 30 30 31 31 28 23 19 16 15
13 14 14 15 16 16 16 15 15 16 17 18 18 16 13 9 8 8 9 8 8 9 9 9 9 9 9 9 9 9 8 8 7 7 7 6 6 7 8 8 9 8 8 8 8 8 8 8 8 9 10 11 12 11 11 12 13 13 14 17 19 20 22 23 24 25 25 26 26 27 27 27 28 28 28 28 29 29 30 31 29 24 16 14 13 13
12 12 12 12 12 12 12 11 11 12 13 14 14 13 11 9 8 8 8 8 8 8 9 9 9 9 9 8 7 7 6 7 7 7 7 6 6 7 8 8 9 8 7 7 7 8 9 8 7 8 9 11 11 11 11 11 12 12 11 13 13 15 18 20 22 22 23 24 25 25 26 26 27 27 27 28 28 29 29 30 28 23 15 13 13 13
11 10 10 10 10 9 9 9 9 9 9 10 10 9 9 9 8 8 8 8 8 8 8 9 9 9 9 8 8 7 6 7 8 9 8 6 6 6 8 8 9 8 7 7 7 8 8 8 8 8 9 10 10 11 11 11 11 11 11 11 12 13 16 17 18 19 19 20 22 23 24 25 26 26 27 27 28 28 29 30 28 23 15 13 13 13
10 10 9 9 9 9 8 8 8 8 8 8 8 8 8 8 9 8 8 8 7 7 8 9 9 9 9 9 9 9 8 9 10 10 10 7 6 6 7 8 9 9 8 8 8 8 8 8 9 10 10 10 10 10 11 11 11 11 11 11 11 12 14 14 14 15 15 16 18 19 21 22 23 24 25 26 27 27 28 29 28 25 19 14 13 13
10 10 10 9 9 8 8 8 8 8 8 8 8 8 8 8 8 8 8 8 7 7 8 8 9 9 9 9 9 10 10 10 11 11 10 8 6 6 8 9 9 9 9 8 8 8 8 9 10 10 10 10 10 10 10 11 11 11 10 11 11 11 12 12 12 12 13 13 13 14 15 16 18 20 21 23 24 25 26 27 28 27 25 19 15 13
9 10 9 9 9 8 9 9 8 8 8 8 8 8 8 8 8 8 8 8 8 8 8 8 8 9 9 9 9 10 11 11 12 12 11 9 7 7 8 8 9 9 9 9 8 8 8 10 11 11 10 10 10 10 9 10 10 10 10 10 11 11 11 11 11 12 12 12 12 12 12 12 13 14 16 18 20 22 24 26 27 28 28 26 22 18
9 9 9 8 8 8 9 9 9 8 8 8 8 8 8 8 8 8 8 8 8 9 9 9 9 9 9 10 10 11 12 11 12 13 12 10 8 7 7 8 8 9 9 9 9 8 9 10 11 12 12 12 11 10 9 10 10 10 10 11 11 11 11 11 11 12 12 12 12 12 11 11 12 12 14 18 21 23 25 26 27 28 29 29 28 25
9 9 9 8 8 8 9 8 8 8 8 8 8 8 8 9 9 9 9 9 9 10 10 11 11 11 12 11 11 11 12 12 12 13 14 11 10 9 8 8 9 9 9 9 9 9 9 10 11 11 11 11 10 9 9 10 10 10 11 11 11 11 12 12 12 11 11 12 12 12 12 12 12 13 14 18 20 22 23 25 26 27 28 29 29 29
8 8 8 8 8 8 8 8 8 8 8 8 8 9 9 10 10 11 10 10 11 11 11 11 11 12 15 15 14 14 14 15 16 16 16 13 11 10 9 9 10 10 10 10 9 10 10 10 11 11 10 10 11 11 12 11 11 11 11 11 11 11 12 12 11 11 11 12 13 13 13 13 13 13 13 14 14 14 15 16 18 20 23 24 26 28
8 8 8 8 8 8 8 8 8 8 8 9 9 9 10 11 11 11 11 11 11 11 12 11 11 12 13 14 15 16 16 16 16 16 15 14 12 10 10 10 10 10 10 10 9 9 10 10 10 11 10 11 11 12 12 11 11 12 12 11 11 11 11 11 11 11 11 12 13 13 13 12 12 12 12 12 12 12 12 12 13 14 16 15 17 20
8 8 8 8 8 8 8 8 9 9 9 9 10 10 10 10 10 10 10 10 10 11 12 12 12 11 12 13 13 14 14 13 13 13 13 12 11 10 10 10 10 10 10 10 9 9 10 10 11 11 12 11 11 11 11 11 12 12 13 11 10 10 11 11 11 11 11 11 12 12 12 11 12 12 13 12 12 12 12 12 12 13 13 12 11 12
9 8 8 8 8 8 8 9 9 9 9 9 9 9 9 9 9 9 9 9 9 9 10 10 11 11 11 12 12 13 13 13 13 13 12 12 12 11 10 10 10 10 10 10 10 10 10 11 11 12 12 12 12 13 13 13 14 15 14 12 11 11 12 13 12 12 11 11 11 11 12 13 14 14 13 13 12 12 12 12 13 13 13 11 11 10
9 9 8 8 8 8 8 9 9 10 10 9 9 9 9 8 8 9 9 9 9 9 9 9 9 10 11 11 11 11 11 11 12 12 12 12 12 12 11 11 10 10 10 10 10 11 11 11 11 11 11 11 11 12 12 13 14 14 13 13 13 13 13 12 11 10 10 11 11 12 13 13 13 13 13 13 12 12 12 13 14 15 14 12 11 11
8 8 8 8 8 9 9 10 10 9 9 8 8 8 8 8 8 9 9 9 10 10 10 9 9 10 11 11 11 11 10 10 10 11 11 11 12 12 12 12 11 10 10 10 10 11 11 11 11 11 11 11 11 12 13 13 13 13 13 13 13 11 9 9 9 10 10 11 12 12 12 12 12 12 12 12 12 12 12 13 15 16 15 13 11 11
8 8 8 8 8 8 9 9 8 8 8 9 9 9 8 8 9 9 9 9 9 10 9 9 9 10 10 11 12 11 11 10 11 11 11 11 12 12 12 13 12 12 11 10 10 10 10 11 11 11 11 11 11 12 12 13 13 13 12 13 13 12 10 10 11 12 12 12 12 11 12 12 13 13 12 12 12 11 11 11 11 11 12 11 11 11
8 8 8 8 8 8 8 9 9 8 9 9 9 9 9 9 9 9 9 9 9 10 9 9 8 8 9 10 11 11 10 10 10 9 9 11 12 13 12 11 11 11 11 10 10 9 9 10 11 11 10 10 11 12 12 13 13 13 13 13 13 12 12 12 12 12 12 12 12 12 13 13 13 13 13 13 12 11 11 10 11 11 11 11 11 11
8 8 8 8 8 9 9 9 9 9 9 9 9 9 9 9 9 9 9 9 9 9 9 9 8 8 9 10 10 10 10 10 10 9 9 9 10 10 10 10 10 9 9 9 10 10 10 10 11 11 11 11 11 12 12 13 13 12 12 12 12 12 12 12 12 12 12 12 13 13 14 14 13 13 13 13 13 12 11 10 10 10 11 11 11 11
9 9 9 9 9 9 9 9 9 9 9 9 9 9 9 9 9 9 9 9 9 9 9 9 9 9 10 10 10 10 10 11 11 10 10 10 10 10 9 9 9 10 9 9 10 11 11 11 11 11 11 11 11 12 12 12 12 12 12 12 11 11 11 11 11 11 12 12 12 13 15 14 14 13 14 14 13 12 11 10 9 9 10 10 10 10
9 9 9 9 9 9 9 9 9 9 10 10 10 10 9 9 10 10 9 9 9 9 9 9 9 10 10 11 10 10 11 11 11 11 10 10 10 10 9 9 9 9 9 10 11 12 12 12 13 13 12 12 12 12 12 12 11 11 11 11 11 11 12 12 11 11 12 12 13 14 14 13 13 13 14 14 13 12 11 11 10 9 9 9 9 9
9 9 9 9 9 9 9 9 9 9 10 10 10 10 10 10 11 11 9 9 9 8 8 9 10 10 10 11 11 11 11 11 11 10 10 10 9 9 9 9 9 9 9 9 10 11 11 12 12 13 13 12 12 12 12 12 11 11 11 11 11 11 11 11 12 12 12 12 13 14 13 12 12 12 13 13 14 14 14 13 12 11 9 9 9 9
9 9 9 9 9 9 9 9 9 10 10 11 11 11 11 10 10 10 9 9 8 8 8 9 10 10 11 11 11 11 11 11 11 10 10 9 9 9 9 9 9 9 9 9 9 9 9 9 10 11 12 12 12 12 12 12 11 11 10 10 10 10 11 11 11 12 12 12 13 13 13 12 12 12 11 12 13 14 14 13 13 12 11 10 10 10
9 9 9 9 9 9 9 9 9 10 10 11 11 11 11 10 10 9 9 9 9 9 9 9 10 10 11 11 11 11 11 11 11 11 10 9 9 9 9 9 9 9 9 9 9 8 8 8 8 8 9 10 11 11 9 10 11 11 10 10 10 9 10 11 11 12 12 12 12 12 12 12 12 11 11 11 12 13 13 13 14 14 13 12 11 12
Wind_Direction
297 300 302 303 302 299 297 298 297 296 295 294 293 294 294 294 294 294 295 295 295 295 294 293 292 291 291 290 290 289 289 290 290 291 292 292 292 291 291 290 290 290 290 289 289 289 289 288 288 287 287 287 287 287 288 288 287 287 287 287 286 286 285 285 284 284 283 283 282 281 281 280 279 278 277 275 274 273 272 272 272 272 272 272 271 270
298 300 300 302 301 298 296 296 296 295 295 295 296 296 296 297 297 297 296 296 295 295 295 293 292 291 290 290 289 289 290 290 291 292 292 292 292 291 290 290 289 289 290 289 289 290 290 290 289 289 289 289 289 288 288 288 287 287 286 286 285 285 284 283 283 282 282 281 281 281 281 280 280 279 278 277 275 274 273 273 273 272 272 271 270 270
302 300 299 300 299 297 296 297 296 295 294 295 296 297 297 297 297 297 297 297 296 295 294 293 292 290 289 287 288 289 290 292 292 292 292 292 291 291 291 290 290 291 291 291 291 291 290 290 289 289 288 288 287 287 286 286 285 285 284 284 283 283 282 282 281 281 280 280 280 280 279 279 278 277 276 274 274 273 272 272 271 270 270 269 268 267
300 299 300 299 296 295 295 297 297 296 294 294 295 296 296 297 297 297 298 298 296 294 292 290 288 287 287 287 289 291 292 293 293 293 292 292 292 292 292 292 291 291 291 291 290 290 289 288 288 287 286 286 285 284 284 284 284 283 283 283 282 282 281 281 280 280 280 280 280 279 279 278 277 276 275 274 273 272 272 271 271 271 270 269 268 267
296 296 299 298 295 293 294 294 295 294 293 293 294 295 296 296 297 298 297 295 293 291 289 286 286 286 288 290 292 293 294 294 294 294 293 293 293 293 292 292 291 290 290 289 289 288 287 287 286 286 285 285 284 284 284 284 283 283 283 283 282 282 281 281 281 281 281 281 281 280 280 279 279 278 277 276 275 274 273 272 271 271 270 270 269 268
292 293 296 295 294 293 293 292 292 292 292 292 293 295 297 297 297 295 293 290 288 287 286 286 288 290 292 293 294 295 295 295 295 295 294 294 293 293 292 291 290 289 289 289 288 288 287 287 287 286 286 285 285 285 285 284 284 284 284 283 283 282 282 282 282 282 282 282 282 282 281 281 281 281 281 280 279 278 276 274 273 271 270 269 268 268
290 288 290 289 289 288 288 288 291 292 293 294 295 296 295 294 292 290 288 287 287 287 288 290 292 293 295 296 297 297 297 297 296 295 294 293 293 292 291 290 290 289 289 289 289 288 288 288 288 287 287 286 286 285 285 285 285 284 284 284 284 284 284 284 284 284 284 284 283 283 282 282 282 281 281 281 281 280 279 278 276 274 272 271 270 269
289 287 285 285 286 286 285 285 289 292 295 297 298 297 293 289 287 286 287 288 289 292 294 295 296 297 298 299 300 300 299 297 296 295 294 293 292 291 291 290 290 290 290 290 289 289 289 288 288 288 287 287 286 286 285 285 285 285 285 285 286 286 286 286 286 285 285 285 284 283 283 282 281 281 281 280 280 280 279 279 278 276 276 274 273 272
287 288 286 284 285 286 288 288 289 291 294 295 295 295 293 291 290 289 290 292 295 298 300 301 301 301 300 301 300 299 297 295 294 293 293 292 292 291 291 291 290 290 290 290 290 290 289 289 289 289 288 288 288 287 287 287 287 287 287 287 287 286 286 286 286 285 285 284 284 283 283 282 281 281 280 279 278 278 277 277 276 276 275 275 274 273
282 283 284 282 282 284 288 292 294 293 290 287 286 287 290 294 296 297 297 299 301 303 303 303 302 302 301 300 298 296 295 293 291 290 290 290 290 290 290 290 290 290 290 290 290 290 290 290 290 290 290 289 289 289 288 288 288 287 287 286 286 286 285 285 285 285 284 284 284 283 283 282 281 280 280 279 278 277 276 275 274 274 273 273 272 272
280 279 280 281 282 282 283 287 291 292 289 285 284 284 287 294 299 303 304 304 305 305 303 301 300 300 300 299 297 295 294 292 291 290 289 290 290 290 290 290 290 290 291 291 291 291 291 291 291 291 290 290 289 289 288 287 287 286 286 286 285 285 285 284 284 284 284 284 283 283 282 282 281 280 279 278 277 275 274 273 272 272 271 270 270 269
279 280 280 283 286 288 285 284 285 288 291 292 293 294 295 298 301 303 304 305 305 305 303 300 298 296 296 297 296 295 293 291 291 291 291 291 291 291 291 292 292 292 293 293 293 292 292 292 291 291 290 289 288 288 287 287 286 286 285 285 285 284 284 284 284 284 283 283 283 282 281 280 279 278 277 276 275 273 272 271 270 269 269 268 268 267
278 279 282 286 289 291 292 293 294 295 298 299 299 300 300 302 303 303 302 302 302 302 302 299 296 293 292 292 293 293 292 291 290 291 292 293 294 295 296 295 295 295 295 294 293 292 292 292 291 290 289 288 287 287 286 286 285 285 285 285 284 284 284 283 283 283 282 282 281 280 279 279 278 276 275 274 273 272 271 270 269 268 267 267 266 266
283 287 290 290 293 296 299 300 301 301 300 299 298 298 300 303 304 303 300 298 298 299 298 295 294 292 292 291 290 290 291 291 292 292 293 294 296 298 299 297 296 295 295 294 292 291 292 292 291 289 288 287 286 286 285 285 285 285 285 285 285 284 284 284 283 283 282 281 281 280 279 279 278 277 276 275 274 273 272 271 270 269 268 268 267 266
295 301 301 300 300 300 301 300 299 297 296 296 296 297 300 301 302 301 299 297 297 297 296 293 292 291 290 290 292 293 293 293 294 294 294 294 296 298 299 297 295 293 293 292 291 290 291 290 288 287 286 286 285 286 286 287 286 286 286 286 286 285 285 285 284 284 283 283 282 281 281 280 279 279 278 277 276 275 274 273 272 271 270 269 268 267
304 304 301 300 299 298 297 296 294 293 294 296 297 299 300 301 301 300 297 296 295 296 295 295 294 293 290 290 294 296 297 296 295 295 296 295 297 298 299 296 293 291 290 289 289 289 290 288 286 285 286 286 287 287 288 288 287 287 287 287 287 287 287 286 286 285 284 284 283 282 282 281 280 279 279 278 277 276 275 274 272 271 270 269 268 267
303 301 298 296 295 294 293 291 291 292 296 298 299 299 300 299 298 297 294 293 294 294 293 296 297 299 299 298 298 298 300 298 297 296 296 295 296 297 297 293 291 290 289 288 288 289 290 288 288 287 287 287 288 288 289 289 288 288 289 288 288 287 287 286 286 285 284 284 283 282 282 281 280 279 279 278 277 276 274 273 272 271 270 269 267 266
297 295 294 292 291 291 293 293 294 296 298 298 299 299 298 295 293 292 290 291 291 291 293 295 296 299 302 302 302 303 305 301 299 297 296 293 293 294 294 291 288 288 288 288 289 289 289 288 287 287 287 288 288 289 289 289 289 289 289 288 288 287 286 286 286 285 285 284 283 283 282 281 281 280 279 278 277 276 275 274 272 271 270 268 267 266
291 290 289 290 291 293 295 296 297 298 298 299 300 299 296 292 290 289 288 288 288 290 294 296 297 296 296 295 298 302 306 303 301 298 295 293 292 293 294 290 287 286 287 288 289 290 289 288 287 287 287 288 288 288 289 289 289 289 289 288 288 288 288 287 287 287 286 285 285 284 283 282 281 281 280 279 278 277 275 274 273 272 271 269 268 266
288 289 289 292 294 294 293 292 293 294 296 298 298 296 292 291 289 288 287 288 290 293 296 296 295 294 293 292 295 299 305 304 300 295 291 290 290 292 294 291 288 287 287 288 290 291 290 288 287 287 287 287 288 289 289 289 290 290 290 290 290 289 289 288 288 287 286 286 285 284 283 282 282 281 280 279 278 277 276 275 274 273 272 270 269 268
288 289 289 291 291 290 289 289 291 293 296 297 295 292 289 288 288 288 291 295 298 298 297 293 291 291 293 293 295 298 302 301 296 291 289 288 288 290 293 292 290 289 288 289 290 290 289 288 287 287 287 289 289 290 290 291 291 291 291 290 290 289 288 288 287 286 286 285 284 284 283 282 282 281 280 279 278 277 276 275 274 273 272 271 270 269
287 287 287 286 285 284 285 287 290 292 294 294 290 287 286 290 294 298 302 303 301 298 294 290 289 290 291 290 290 292 295 292 289 288 290 289 289 290 293 292 291 289 288 290 291 291 290 290 289 289 290 290 291 291 291 291 291 290 290 289 289 289 289 288 287 287 286 286 285 284 283 283 282 281 280 279 277 276 275 274 273 272 271 270 269 268
284 284 285 284 284 284 286 289 290 291 290 287 284 285 292 299 302 304 304 301 297 293 291 288 287 286 284 283 284 286 287 286 285 286 287 287 289 291 295 294 292 289 288 291 294 295 295 294 292 292 291 291 291 291 290 290 290 289 290 290 290 290 290 290 289 288 288 287 286 285 284 283 282 281 280 278 277 276 275 274 273 272 271 270 269 268
282 282 283 284 285 286 287 287 286 285 284 285 288 292 298 299 299 298 296 293 290 288 287 286 285 283 281 281 283 285 287 289 289 289 286 286 288 291 296 296 293 290 290 294 298 300 299 295 293 292 291 290 290 290 290 290 290 290 290 291 291 291 291 291 290 290 289 288 287 287 285 284 283 282 281 280 279 277 276 275 274 273 272 270 269 268
282 282 284 284 285 284 284 283 285 288 293 296 299 300 300 299 297 294 290 288 285 285 285 285 285 285 285 287 288 289 291 293 292 290 287 286 287 290 294 295 294 293 294 297 299 300 297 294 292 291 290 290 290 290 290 290 290 291 291 291 291 291 291 291 290 290 289 289 288 288 287 286 285 284 283 282 281 279 278 277 276 275 273 272 271 270
282 282 283 284 285 286 288 290 293 296 299 300 300 301 300 299 296 293 289 286 285 286 287 286 286 288 291 293 292 292 293 293 292 289 286 286 288 290 293 296 296 295 296 298 298 298 296 294 293 293 292 291 291 291 291 291 291 292 292 291 291 291 291 290 289 289 288 287 287 286 286 285 284 283 283 282 281 280 279 278 277 276 275 274 273 271
284 284 284 286 288 290 293 296 297 299 300 299 299 299 298 298 295 292 288 288 289 290 290 289 290 291 293 292 291 292 295 296 293 289 286 286 287 290 295 298 299 297 297 297 297 297 295 294 293 293 291 290 290 290 292 292 293 293 293 292 291 290 289 288 287 286 285 285 284 283 283 282 281 281 280 280 279 279 278 277 276 275 275 274 273 271
286 286 287 289 292 295 297 298 299 299 299 299 298 298 298 296 292 289 288 291 293 292 289 289 291 292 293 293 293 294 296 294 292 290 290 288 287 289 295 300 300 299 299 297 296 295 292 290 290 290 290 290 291 293 294 295 295 295 294 292 290 288 287 285 284 283 283 282 281 281 280 280 279 278 278 278 277 277 276 276 275 275 274 273 271 268
289 290 292 296 298 300 301 301 300 299 298 297 297 296 295 291 287 286 288 292 292 290 287 287 288 290 292 293 294 294 292 290 291 295 301 296 290 290 297 300 301 301 301 300 298 294 288 286 287 289 291 294 296 297 298 298 297 295 293 290 288 287 285 284 283 283 282 282 281 281 280 280 279 279 278 278 277 277 276 276 275 275 273 271 268 266
299 301 302 303 304 303 302 300 298 297 296 295 294 294 291 286 282 282 284 287 286 285 285 286 288 289 292 294 294 292 289 290 297 306 311 301 293 292 298 299 300 301 304 304 302 298 292 288 288 291 296 298 299 299 298 297 296 293 292 290 288 287 285 284 284 284 283 284 283 283 283 282 282 281 281 280 279 278 277 277 276 276 273 269 266 264
309 309 307 306 304 302 299 297 295 294 294 294 293 292 289 285 281 280 281 282 281 281 283 285 287 289 291 293 293 291 289 293 302 309 311 299 292 293 299 298 298 299 302 302 303 303 302 299 297 297 299 299 298 297 295 295 294 293 292 291 289 287 286 286 286 286 286 286 286 285 285 285 284 283 282 281 281 280 279 278 277 276 273 270 267 265
310 307 304 302 301 299 297 295 295 294 294 294 293 292 289 285 282 280 279 278 278 278 280 282 285 286 286 285 284 284 286 292 299 303 304 296 291 291 296 296 296 297 297 294 293 294 299 302 304 304 302 299 297 295 294 293 293 292 291 290 289 287 287 288 288 288 288 288 287 287 286 285 284 283 282 281 281 280 279 278 277 276 272 269 267 265
305 303 300 299 298 297 296 295 295 294 294 294 293 292 290 287 284 282 280 278 277 277 278 280 282 284 283 281 279 278 281 286 292 297 300 296 292 292 295 295 295 295 295 290 286 284 285 292 298 301 301 298 296 295 295 294 292 291 290 289 289 290 291 292 291 290 290 289 288 287 286 285 284 282 281 280 279 279 278 277 276 274 271 268 266 264
302 300 299 299 298 297 296 296 296 296 295 294 294 293 291 289 286 284 282 280 278 276 275 277 279 281 282 281 279 278 280 282 289 295 300 297 293 291 293 293 294 295 295 292 288 285 282 286 291 296 298 298 296 295 295 294 293 291 290 291 291 292 293 294 292 291 289 289 287 286 285 284 282 281 280 278 278 277 276 276 275 273 271 268 266 264
300 299 299 299 299 298 297 297 297 297 296 295 294 293 292 291 289 287 285 283 281 278 275 274 274 274 276 277 278 279 281 284 290 296 298 293 290 288 290 291 292 293 293 291 291 290 287 288 290 293 295 297 296 294 293 293 294 294 294 293 292 291 291 292 291 290 289 288 286 285 284 283 282 280 278 277 276 275 275 275 274 273 271 269 267 265
299 299 299 299 300 299 300 300 300 299 298 297 296 295 294 292 291 289 288 285 283 281 278 274 271 269 268 269 271 275 278 283 288 291 291 288 286 285 286 287 289 290 290 289 289 289 288 289 291 292 293 294 294 294 294 295 297 297 296 294 292 290 289 289 288 288 288 287 286 285 284 283 282 280 279 278 277 277 276 276 275 274 272 270 268 266
298 298 298 300 300 301 301 301 301 301 300 299 298 297 296 295 293 292 289 286 284 281 279 276 273 269 265 265 265 268 273 279 283 284 284 282 281 280 280 282 284 285 284 284 286 287 288 290 290 291 290 289 290 294 298 301 300 298 295 294 293 292 290 289 288 287 286 284 283 283 283 284 283 283 282 280 280 279 278 277 275 274 272 271 269 266
298 298 299 301 302 302 302 302 302 302 301 301 300 298 297 295 293 292 290 287 284 281 279 277 275 273 271 269 268 268 271 274 276 278 278 277 276 275 275 278 279 279 277 278 280 283 285 287 289 291 291 289 288 291 295 298 299 297 296 295 294 293 291 290 288 287 284 284 284 284 285 285 284 284 283 282 281 280 278 276 274 273 271 270 268 266
298 299 301 302 303 303 302 302 301 301 301 299 298 296 294 292 291 290 289 287 285 283 281 281 280 279 277 275 273 272 272 272 272 273 273 272 270 270 271 274 276 276 275 274 274 276 278 280 283 286 289 290 291 291 292 293 294 295 296 296 294 291 288 289 289 288 287 287 287 286 285 284 283 283 283 283 282 281 280 278 276 274 273 272 269 267
300 300 300 302 302 301 300 299 299 299 298 297 295 294 292 291 291 291 290 289 287 286 285 285 284 283 282 280 279 277 276 273 272 270 269 266 264 263 266 269 272 274 275 273 272 271 272 274 277 279 282 285 288 290 291 291 291 293 296 297 295 292 291 291 291 290 288 285 284 283 284 285 285 285 284 283 282 281 280 280 279 278 275 273 271 269
301 301 301 302 301 300 298 297 297 297 297 296 295 294 293 293 293 294 294 293 292 291 291 290 289 288 286 284 283 281 279 275 272 269 266 263 260 260 262 264 268 270 273 273 271 270 270 272 274 277 278 280 282 284 285 286 289 291 293 292 290 290 292 291 289 287 285 284 284 285 288 289 288 287 285 282 280 277 276 277 277 277 275 270 267 265
300 301 302 303 302 301 300 298 297 296 295 294 293 292 292 293 294 295 296 297 297 297 297 297 296 295 294 291 288 285 281 277 273 270 267 264 261 260 260 262 264 267 269 271 271 270 269 271 273 275 277 280 282 283 284 285 287 289 289 287 288 290 291 288 286 286 288 289 291 291 291 289 288 286 284 283 281 278 275 273 273 272 272 268 265 262
301 301 301 301 301 300 299 299 298 296 295 294 292 291 291 291 292 293 294 295 297 298 299 299 298 297 296 296 295 293 290 285 282 279 275 269 265 263 261 261 262 264 266 268 270 272 272 273 273 275 277 279 280 281 283 286 287 287 286 286 289 292 293 292 293 295 294 293 292 291 289 288 287 287 286 285 283 280 277 274 272 270 268 267 265 263
301 300 300 300 300 299 299 298 298 297 296 294 293 292 292 292 292 292 292 292 293 295 297 297 296 295 293 294 295 297 298 296 292 288 282 277 271 267 264 263 262 262 262 265 269 274 278 277 276 276 278 279 279 280 281 283 285 285 285 285 285 284 283 289 295 298 297 294 292 290 289 290 290 290 290 287 285 283 280 277 274 271 268 266 265 264
300 300 300 300 300 300 299 299 298 298 297 295 295 294 294 295 294 293 292 292 293 294 295 296 296 295 293 294 296 298 300 300 298 295 290 285 281 277 273 269 267 265 263 263 265 270 275 278 280 281 282 279 278 276 277 280 281 282 282 282 281 280 279 284 290 294 295 295 294 293 293 294 295 295 293 291 289 287 285 283 281 278 275 273 271 268
301 301 302 301 301 300 299 299 299 299 298 297 296 297 297 298 296 294 292 292 293 293 294 295 294 292 292 294 296 298 299 300 300 300 299 296 292 288 283 278 274 271 268 266 266 266 267 272 276 280 283 280 277 274 273 276 278 280 282 283 284 284 285 288 289 291 292 293 294 295 296 298 298 296 294 294 294 294 290 286 282 280 280 279 277 274
302 302 302 302 301 301 300 301 301 301 300 300 299 299 299 298 297 295 294 294 293 293 294 294 292 289 289 291 293 295 297 299 300 301 302 301 299 296 292 286 281 276 273 271 270 269 267 267 268 271 274 277 277 276 275 275 276 278 282 285 288 289 290 290 291 291 292 292 293 296 299 301 300 298 296 296 296 296 294 291 286 282 280 279 279 277
302 302 302 302 301 300 301 301 302 301 301 300 299 299 299 299 299 298 296 295 294 293 293 293 292 290 289 290 291 292 294 296 297 299 300 301 301 300 298 294 289 284 279 277 275 274 272 269 266 265 265 268 271 274 276 276 276 277 281 285 288 290 290 290 292 294 294 293 293 295 299 300 300 299 299 299 299 300 300 299 296 291 284 281 280 280
302 301 301 300 300 300 300 301 302 301 300 300 300 299 300 300 300 299 296 295 294 292 291 291 291 291 291 292 292 293 294 295 295 296 298 299 300 301 301 299 297 294 290 286 284 282 280 275 269 264 259 259 262 267 272 275 276 278 280 283 286 288 290 292 294 296 296 295 295 296 296 295 295 295 296 299 300 303 305 306 305 302 297 293 289 288
300 299 299 299 299 299 300 301 301 300 299 299 299 300 300 301 300 299 296 294 292 290 289 290 290 291 291 292 293 295 296 296 296 296 297 299 300 302 302 302 301 301 299 297 295 293 291 286 278 269 260 256 256 260 268 274 277 280 281 283 285 289 291 293 295 297 298 299 298 298 296 294 294 294 294 297 300 303 306 307 308 308 308 305 300 296
300 299 299 299 298 298 299 299 298 298 297 297 297 298 298 299 299 298 297 295 294 292 291 290 289 289 290 291 293 294 295 295 295 296 297 298 300 301 301 301 303 304 304 304 304 304 303 302 298 290 277 267 262 262 269 279 285 288 288 288 290 291 293 294 296 298 299 299 299 298 297 296 296 297 298 300 302 304 306 309 310 311 311 309 307 303